Weather Roundup
Issued by NWS Springfield, MO

Home | Current Version | Previous Version | Text Only | Print | Product List | Glossary On
Versions: 1 2 3 4 5 6 7 8 9 10 11 12 13 14 15 16 17 18 19 20 21 22 23 24 25 26 27 28 29 30 31 32 33 34 35 36 37 38 39 40 41 42 43 44 45 46 47 48 49 50
000
NZUS99 KSGF 280307
HRRSGF

HOURLY WEATHER
NATIONAL WEATHER SERVICE SPRINGFIELD MO
1000 PM CDT MON JUL 27 2015

......SGF CWA......

CITY           SKY/WX    TMP DP  RH WIND       PRES   REMARKS
SPRINGFIELD    CLEAR     84  75  74 S7        29.96R HX  92
JOPLIN         CLEAR     83  76  79 S7        29.93R HX  91
WEST PLAINS    MOCLDY    77  72  84 CALM      30.00R
ROLLA          MOCLDY    82  78  88 E3        29.95S HX  91
OSAGE BEACH    PTCLDY    82  75  78 CALM      29.95R
BRANSON        CLEAR     82  75  78 CALM      29.99R

......SURROUNDING SGF CWA......

CITY           SKY/WX    TMP DP  RH WIND       PRES   REMARKS
CHANUTE        CLEAR     82  74  76 SE8       29.90R
PARSONS        CLEAR     82  76  81 SE3       29.91R
COFFEYVILLE    CLEAR     84  77  79 S6        29.89R HX  94
EMPORIA        CLEAR     83  71  67 S10       29.88R
GROVE OK       CLEAR     84  79  84 SE3       29.93R HX  96
ROGERS AR      PTCLDY    83  75  77 SE5       29.98R HX  90
SILOAM SPRINGS CLEAR     82  72  69 E5        29.94R
HARRISON AR    CLEAR     80  77  90 SE3       29.99R
NEAR YELLVILLE CLEAR     79  72  78 CALM      29.95R

......KANSAS AND MISSOURI......

CITY           SKY/WX    TMP DP  RH WIND       PRES   REMARKS
KANSAS CTY INT PTCLDY    82  73  74 SE8       29.89R
DOWNTOWN KC    CLEAR     89  73  59 SE9       29.88R HX  97
COLUMBIA       LGT RAIN  75  72  90 E12       29.96S
SEDALIA        CLEAR     84  77  79 SE5       29.94R HX  94
ST JOSEPH      CLEAR     79  72  79 E14       29.88R
ST LOUIS       CLOUDY    78  69  73 W3        29.99R
SPIRIT OF STL  CLOUDY    77  70  79 E7        29.96S
KIRKSVILLE     PTCLDY    74  71  91 SE10      29.96S
WICHITA        PTCLDY    85  69  58 S14       29.85R
TOPEKA         CLEAR     83  73  72 SE8       29.87R
OLATHE         CLEAR     82  74  76 SE7       29.90R

......TENNESSEE......

CITY           SKY/WX    TMP DP  RH WIND       PRES   REMARKS
MEMPHIS        PTCLDY    88  76  67 CALM      29.96R HX  99
NASHVILLE      MOCLDY    84  74  71 N7        29.99R HX  91

......ARKANSAS.......

CITY           SKY/WX    TMP DP  RH WIND       PRES   REMARKS
FAYETTEVILLE   CLEAR     79  78  97 CALM      29.96R
FT SMITH       PTCLDY    88  71  57 S3        29.90R HX  94
LITTLE ROCK    PTCLDY    85  76  74 SE5       29.93R HX  94

......OKLAHOMA.......

CITY           SKY/WX    TMP DP  RH WIND       PRES   REMARKS
TULSA          PTCLDY    86  76  71 SE6       29.88R HX  96
PONCA CITY     CLEAR     85  72  65 SE12      29.87R HX  91
MCALESTER      CLEAR     84  73  69 S3        29.92R HX  90
OKLAHOMA CITY  PTCLDY    81  72  74 S8        29.90R

......IOWA............

CITY           SKY/WX    TMP DP  RH WIND       PRES   REMARKS
DES MOINES     PTCLDY    74  68  81 S8        29.91R
QUAD CITIES    CLOUDY    77  73  87 E5        29.96R

......ILLINOIS........

CITY           SKY/WX    TMP DP  RH WIND       PRES   REMARKS
QUINCY         CLOUDY    73  71  93 S5        29.95F
CHICAGO        MOCLDY    76  65  68 E7        30.01R




USA.gov is the U.S. government's official web portal to all federal, state and local government web resources and services.